When you browse on this site, cookies collect data to enhance your experience and personalize the content and advertising you see.
Visit our Privacy Policy to learn more. By continuing to use the site, you agree to this use of cookies and data.
  • In United Kingdom
  • List of Countries
  • For 7 days
  • Water Temperature
  • Weather Map
  • Weather Widgets
  • user-avatar
    Login

    Hourly Weather Sutton in Ashfield

    Today, 27 May, Wednesday

    Time Temperature Precipitation Wind Pressure Humidity
    00:00 +12°C° 0 mm 1 mps 762 mmHg 68%
    01:00 +12°C° 0 mm 1 mps 762 mmHg 65%
    02:00 +11°C° 0 mm 1 mps 762 mmHg 61%
    03:00 +11°C° 0 mm 1 mps 761 mmHg 58%
    04:00 +11°C° 0 mm 1 mps 761 mmHg 61%
    05:00 +12°C° 0 mm 1 mps 761 mmHg 63%
    06:00 +12°C° 0 mm 2 mps 761 mmHg 66%
    07:00 +14°C° 0 mm 2 mps 762 mmHg 64%
    08:00 +15°C° 0 mm 2 mps 762 mmHg 62%
    09:00 +17°C° 0 mm 2 mps 762 mmHg 59%
    10:00 +18°C° 0 mm 2 mps 762 mmHg 55%
    11:00 +19°C° 0 mm 2 mps 762 mmHg 51%
    12:00 +20°C° 0 mm 2 mps 762 mmHg 47%
    13:00 +20°C° 0 mm 2 mps 762 mmHg 48%
    14:00 +20°C° 0 mm 2 mps 762 mmHg 48%
    15:00 +20°C° 0 mm 2 mps 762 mmHg 48%
    16:00 +19°C° 0 mm 3 mps 762 mmHg 55%
    17:00 +19°C° 0 mm 3 mps 762 mmHg 62%
    18:00 +18°C° 0 mm 3 mps 761 mmHg 69%
    19:00 +16°C° 0 mm 3 mps 762 mmHg 72%
    20:00 +13°C° 0 mm 3 mps 762 mmHg 75%
    21:00 +12°C° 0 mm 2 mps 762 mmHg 79%
    22:00 +10°C° 0 mm 2 mps 762 mmHg 78%
    23:00 +10°C° 0 mm 1 mps 762 mmHg 77%

    Tomorrow, 28 May, Thursday

    Time Temperature Precipitation Wind Pressure Humidity
    00:00 +10°C° 0 mm 1 mps 762 mmHg 77%
    01:00 +9°C° 0 mm 1 mps 762 mmHg 78%
    02:00 +9°C° 0 mm 1 mps 761 mmHg 78%
    03:00 +8°C° 0 mm 0 mps 761 mmHg 79%
    04:00 +9°C° 0 mm 0 mps 761 mmHg 79%
    05:00 +11°C° 0 mm 1 mps 761 mmHg 79%
    06:00 +12°C° 0 mm 1 mps 761 mmHg 79%
    07:00 +14°C° 0 mm 1 mps 761 mmHg 75%
    08:00 +15°C° 0 mm 1 mps 761 mmHg 70%
    09:00 +17°C° 0 mm 2 mps 761 mmHg 66%
    10:00 +18°C° 0 mm 2 mps 760 mmHg 64%
    11:00 +19°C° 0 mm 2 mps 760 mmHg 62%
    12:00 +20°C° 0 mm 2 mps 760 mmHg 60%
    13:00 +20°C° 0 mm 2 mps 759 mmHg 59%
    14:00 +21°C° 0 mm 2 mps 759 mmHg 59%
    15:00 +21°C° 0 mm 2 mps 759 mmHg 59%
    16:00 +20°C° 0 mm 2 mps 758 mmHg 63%
    17:00 +20°C° 0 mm 2 mps 758 mmHg 67%
    18:00 +19°C° 0 mm 3 mps 758 mmHg 71%
    19:00 +18°C° 0 mm 2 mps 758 mmHg 75%
    20:00 +16°C° 0 mm 2 mps 758 mmHg 79%
    21:00 +14°C° 0 mm 2 mps 758 mmHg 82%
    22:00 +13°C° 0 mm 2 mps 758 mmHg 83%
    23:00 +12°C° 0 mm 2 mps 757 mmHg 84%

    Day after tomorrow, 29 May, Friday

    Time Temperature Precipitation Wind Pressure Humidity
    00:00 +12°C° 0 mm 1 mps 757 mmHg 85%
    01:00 +11°C° 0 mm 1 mps 757 mmHg 83%
    02:00 +11°C° 0 mm 1 mps 757 mmHg 80%
    03:00 +10°C° 0 mm 1 mps 757 mmHg 78%
    04:00 +11°C° 0 mm 1 mps 757 mmHg 74%
    05:00 +12°C° 0 mm 1 mps 757 mmHg 70%
    06:00 +13°C° 0 mm 1 mps 757 mmHg 65%
    07:00 +14°C° 0 mm 1 mps 756 mmHg 61%
    08:00 +16°C° 0 mm 2 mps 756 mmHg 56%
    09:00 +17°C° 0 mm 2 mps 756 mmHg 51%
    10:00 +18°C° 0 mm 2 mps 756 mmHg 51%
    11:00 +19°C° 0 mm 3 mps 756 mmHg 51%
    12:00 +20°C° 0 mm 3 mps 756 mmHg 51%
    13:00 +21°C° 0 mm 3 mps 755 mmHg 52%
    14:00 +21°C° 0 mm 3 mps 755 mmHg 54%
    15:00 +21°C° 0 mm 3 mps 755 mmHg 56%
    16:00 +21°C° 0 mm 3 mps 754 mmHg 60%
    17:00 +20°C° 0 mm 3 mps 754 mmHg 65%
    18:00 +20°C° 0 mm 2 mps 754 mmHg 69%
    19:00 +18°C° 0 mm 2 mps 754 mmHg 75%
    20:00 +16°C° 0 mm 2 mps 754 mmHg 80%
    21:00 +14°C° 0 mm 2 mps 754 mmHg 86%
    22:00 +13°C° 0 mm 2 mps 754 mmHg 87%
    23:00 +12°C° 0 mm 2 mps 754 mmHg 88%

    30 May, Saturday

    Time Temperature Precipitation Wind Pressure Humidity
    00:00 +12°C° 0 mm 2 mps 754 mmHg 90%
    01:00 +11°C° 0 mm 1 mps 754 mmHg 89%
    02:00 +10°C° 0 mm 1 mps 754 mmHg 89%
    03:00 +10°C° 0 mm 1 mps 754 mmHg 88%
    04:00 +11°C° 0 mm 1 mps 754 mmHg 85%
    05:00 +11°C° 0 mm 1 mps 754 mmHg 81%
    06:00 +12°C° 0 mm 1 mps 754 mmHg 78%
    07:00 +14°C° 0 mm 1 mps 754 mmHg 73%
    08:00 +15°C° 0 mm 2 mps 754 mmHg 67%
    09:00 +17°C° 0 mm 2 mps 754 mmHg 62%
    10:00 +18°C° 0 mm 2 mps 754 mmHg 60%
    11:00 +19°C° 0 mm 3 mps 754 mmHg 58%
    12:00 +20°C° 0 mm 3 mps 754 mmHg 56%
    13:00 +20°C° 0 mm 3 mps 754 mmHg 56%
    14:00 +20°C° 0 mm 3 mps 753 mmHg 56%
    15:00 +21°C° 0 mm 3 mps 753 mmHg 56%
    16:00 +20°C° 0 mm 3 mps 753 mmHg 61%
    17:00 +19°C° 0 mm 3 mps 753 mmHg 66%
    18:00 +19°C° 0 mm 3 mps 753 mmHg 71%
    19:00 +17°C° 0 mm 3 mps 753 mmHg 77%
    20:00 +14°C° 0 mm 3 mps 753 mmHg 83%
    21:00 +12°C° 0 mm 3 mps 753 mmHg 89%
    22:00 +12°C° 0 mm 2 mps 753 mmHg 90%
    23:00 +10°C° 0 mm 2 mps 753 mmHg 91%

    31 May, Sunday

    Time Temperature Precipitation Wind Pressure Humidity
    00:00 +9°C° 0 mm 2 mps 753 mmHg 92%
    01:00 +10°C° 0 mm 1 mps 753 mmHg 91%
    02:00 +10°C° 0 mm 1 mps 753 mmHg 91%
    03:00 +9°C° 0 mm 1 mps 753 mmHg 91%
    04:00 +10°C° 0 mm 1 mps 753 mmHg 89%
    05:00 +11°C° 0 mm 1 mps 753 mmHg 86%
    06:00 +12°C° 0 mm 1 mps 753 mmHg 84%
    07:00 +13°C° 0 mm 2 mps 753 mmHg 78%
    08:00 +15°C° 0 mm 2 mps 753 mmHg 73%
    09:00 +16°C° 0 mm 2 mps 753 mmHg 68%
    10:00 +17°C° 0 mm 2 mps 753 mmHg 65%
    11:00 +18°C° 0 mm 2 mps 753 mmHg 62%
    12:00 +19°C° 0 mm 2 mps 753 mmHg 59%
    13:00 +19°C° 0 mm 3 mps 752 mmHg 59%
    14:00 +19°C° 0 mm 3 mps 752 mmHg 59%
    15:00 +19°C° 0 mm 3 mps 752 mmHg 59%
    16:00 +19°C° 0 mm 3 mps 752 mmHg 63%
    17:00 +18°C° 0 mm 3 mps 752 mmHg 67%
    18:00 +17°C° 0 mm 3 mps 752 mmHg 71%
    19:00 +16°C° 0 mm 3 mps 751 mmHg 77%
    20:00 +13°C° 0 mm 3 mps 751 mmHg 83%
    21:00 +11°C° 0 mm 3 mps 751 mmHg 89%
    22:00 +10°C° 0 mm 2 mps 751 mmHg 89%
    23:00 +10°C° 0 mm 1 mps 751 mmHg 90%

    1 June, Monday

    Time Temperature Precipitation Wind Pressure Humidity
    00:00 +10°C° 0 mm 1 mps 751 mmHg 91%
    01:00 +9°C° 0 mm 1 mps 751 mmHg 91%
    02:00 +9°C° 0 mm 1 mps 751 mmHg 91%
    03:00 +9°C° 0 mm 1 mps 751 mmHg 91%
    04:00 +10°C° 0 mm 1 mps 751 mmHg 88%
    05:00 +11°C° 0 mm 1 mps 750 mmHg 86%
    06:00 +12°C° 0 mm 1 mps 750 mmHg 83%
    07:00 +13°C° 0 mm 1 mps 750 mmHg 76%
    08:00 +15°C° 0 mm 2 mps 750 mmHg 69%
    09:00 +17°C° 0 mm 2 mps 750 mmHg 62%
    10:00 +17°C° 0 mm 2 mps 750 mmHg 59%
    11:00 +18°C° 0 mm 2 mps 750 mmHg 55%
    12:00 +19°C° 0 mm 2 mps 750 mmHg 52%
    13:00 +19°C° 0 mm 2 mps 749 mmHg 55%
    14:00 +19°C° 0 mm 3 mps 749 mmHg 58%
    15:00 +19°C° 0 mm 3 mps 748 mmHg 61%
    16:00 +18°C° 0 mm 3 mps 748 mmHg 65%
    17:00 +18°C° 0 mm 3 mps 748 mmHg 70%
    18:00 +17°C° 0 mm 3 mps 748 mmHg 74%
    19:00 +15°C° 0 mm 2 mps 748 mmHg 79%
    20:00 +14°C° 0 mm 2 mps 748 mmHg 84%
    21:00 +12°C° 0 mm 2 mps 748 mmHg 89%
    22:00 +12°C° 0 mm 1 mps 748 mmHg 90%
    23:00 +11°C° 0 mm 1 mps 748 mmHg 90%
    Show more